Time,TemperatureF,DewpointF,PressureIn,WindDirection,WindDirectionDegrees,WindSpeedMPH,WindSpeedGustMPH,Humidity,HourlyPrecipIn,Conditions,Clouds,dailyrainin,SolarRadiationWatts/m^2,SoftwareType,DateUTC
2013-02-09 00:00:00,11.0,11.0,-100.00,West,270,0.0,-999.0,96,-99.99,,,-99.99,0.000000,,2013-02-09 05:00:00,
2013-02-09 00:42:00,11.0,11.0,-100.00,West,270,0.0,-999.0,96,-99.99,,,-99.99,0.000000,,2013-02-09 05:42:00,
2013-02-09 00:52:00,11.0,11.0,-100.00,West,270,0.0,-999.0,96,-99.99,,,-99.99,0.000000,,2013-02-09 05:52:00,
2013-02-09 03:00:00,4.0,3.0,-100.00,NNE,22,0.0,-999.0,93,-99.99,,,-99.99,0.000000,,2013-02-09 08:00:00,
2013-02-09 03:42:00,4.0,3.0,-100.00,NNE,22,0.0,-999.0,93,-99.99,,,-99.99,0.000000,,2013-02-09 08:42:00,
2013-02-09 03:52:00,4.0,3.0,-100.00,NNE,22,0.0,-999.0,93,-99.99,,,-99.99,0.000000,,2013-02-09 08:52:00,
2013-02-09 06:00:00,-1.0,-3.0,-100.00,NNE,22,0.0,-999.0,90,-99.99,,,-99.99,0.000000,,2013-02-09 11:00:00,
2013-02-09 06:42:00,-1.0,-3.0,-100.00,NNE,22,0.0,-999.0,90,-99.99,,,-99.99,0.000000,,2013-02-09 11:42:00,
2013-02-09 06:52:00,-1.0,-3.0,-100.00,NNE,22,0.0,-999.0,90,-99.99,,,-99.99,0.000000,,2013-02-09 11:52:00,
2013-02-09 09:00:00,4.0,2.0,-100.00,NE,45,0.0,-999.0,93,-99.99,,,-99.99,63.799999,,2013-02-09 14:00:00,
2013-02-09 09:42:00,4.0,2.0,-100.00,NE,45,0.0,-999.0,93,-99.99,,,-99.99,63.799999,,2013-02-09 14:42:00,
2013-02-09 09:52:00,4.0,2.0,-100.00,NE,45,0.0,-999.0,93,-99.99,,,-99.99,63.799999,,2013-02-09 14:52:00,
2013-02-09 12:00:00,20.0,17.0,-100.00,SE,135,6.0,-999.0,86,-99.99,,,-99.99,408.320007,,2013-02-09 17:00:00,
2013-02-09 12:42:00,20.0,17.0,-100.00,SE,135,6.0,-999.0,86,-99.99,,,-99.99,408.320007,,2013-02-09 17:42:00,
2013-02-09 12:52:00,20.0,17.0,-100.00,SE,135,6.0,-999.0,86,-99.99,,,-99.99,408.320007,,2013-02-09 17:52:00,
2013-02-09 15:00:00,27.0,20.0,-100.00,SE,135,8.0,-999.0,74,-99.99,,,-99.99,412.959991,,2013-02-09 20:00:00,
2013-02-09 15:42:00,27.0,20.0,-100.00,SE,135,8.0,-999.0,74,-99.99,,,-99.99,412.959991,,2013-02-09 20:42:00,
2013-02-09 15:52:00,27.0,20.0,-100.00,SE,135,8.0,-999.0,74,-99.99,,,-99.99,412.959991,,2013-02-09 20:52:00,
2013-02-09 18:00:00,28.0,19.0,-100.00,SE,135,6.0,-999.0,68,-99.99,,,-99.99,47.560001,,2013-02-09 23:00:00,
2013-02-09 18:42:00,28.0,19.0,-100.00,SE,135,6.0,-999.0,68,-99.99,,,-99.99,47.560001,,2013-02-09 23:42:00,
2013-02-09 18:52:00,28.0,19.0,-100.00,SE,135,6.0,-999.0,68,-99.99,,,-99.99,47.560001,,2013-02-09 23:52:00,
2013-02-09 21:00:00,22.0,16.0,-100.00,ESE,112,3.0,-999.0,78,-99.99,,,-99.99,0.000000,,2013-02-10 02:00:00,
2013-02-09 21:42:00,22.0,16.0,-100.00,ESE,112,3.0,-999.0,78,-99.99,,,-99.99,0.000000,,2013-02-10 02:42:00,
2013-02-09 21:52:00,22.0,16.0,-100.00,ESE,112,3.0,-999.0,78,-99.99,,,-99.99,0.000000,,2013-02-10 02:52:00,